Regional Weather Roundup
Issued by NWS

Home | Current Version | Previous Version | Graphics & Text | Print | Product List | Glossary On
Versions: 1 2 3 4 5 6 7 8 9 10 11 12 13 14 15 16 17 18 19 20 21 22 23 24 25 26 27 28 29 30 31 32 33 34 35 36 37 38 39 40 41 42 43 44 45 46 47 48 49 50
000
ASUS44 KMEG 201710
RWRTN
TENNESSEE HOURLY STATE WEATHER ROUNDUP
NATIONAL WEATHER SERVICE MEMPHIS TN
1200 PM CDT MON OCT 20 2014

TNZ002-004-019-021-049-052-054-088>092-201800-
WEST TENNESSEE

CITY           SKY/WX    TMP DP  RH WIND       PRES   REMARKS
MEMPHIS INTL   PTSUNNY   66  49  54 SW6       30.09F
NWS MEMPHIS      N/A     67 N/A N/A MISG        N/A
JACKSON        PTSUNNY   63  49  60 SW6       30.08F
DYERSBURG      MOSUNNY   66  45  45 SW10      30.08S
UNION CITY     PTSUNNY   63  50  63 W10       30.04F
PARIS          PTSUNNY   63  48  59 SW9       30.06F
HUNTINGDON     PTSUNNY   62  50  65 SW7       30.07F
LEXINGTON      MOSUNNY   59  52  77 S5        30.07F
SAVANNAH       MOSUNNY   66  54  63 VRB6      30.08F
$$

TNZ008-025-027-028-033-062-065-066-201800-
NORTH MIDDLE TENNESSEE

CITY           SKY/WX    TMP DP  RH WIND       PRES   REMARKS
NASHVILLE      CLOUDY    62  48  60 SW7       30.06F
CLARKSVILLE    CLOUDY    61  50  67 S8        30.04F
SMYRNA         CLOUDY    62  50  65 CALM      30.08F
COOKEVILLE     SUNNY     64  50  59 W6        30.07F
CROSSVILLE     MOSUNNY   63  43  48 SW8       30.08F
$$

TNZ061-075-076-078-094-096-097-201800-
SOUTH MIDDLE TENNESSEE

CITY           SKY/WX    TMP DP  RH WIND       PRES   REMARKS
FAYETTEVILLE   SUNNY     64  48  55 W18G40    30.08F
TULLAHOMA      SUNNY     66  48  52 W7        30.09S
WINCHESTER     SUNNY     64  48  55 SW8       30.08F
MCMINNVILLE    SUNNY     63  52  67 CALM      30.07F
COLUMBIA       SUNNY     64  52  63 VRB3      30.07S
SHELBYVILLE    SUNNY     68  52  56 SW6       30.08F
$$

TNZ017-018-042-046-047-201800-
NORTHEAST TENNESSEE

CITY           SKY/WX    TMP DP  RH WIND       PRES   REMARKS
TRI CITIES     PTSUNNY   63  46  54 SW22G28   30.07F
ELIZABETHTON   SUNNY     63  45  51 W8        30.07F
$$

TNZ012-013-036-069-073-074-201800-
CENTRAL EAST TENNESSEE

CITY           SKY/WX    TMP DP  RH WIND       PRES   REMARKS
KNOXVILLE      PTSUNNY   65  50  58 SW14      30.06F
OAK RIDGE      MOSUNNY   65  49  56 VRB5      30.08F
GATLINBURG     SUNNY     66  48  52 VRB6      30.05F
MORRISTOWN     MOSUNNY   64  52  63 VRB7      30.08F
$$

TNZ083-085-099-201800-
SOUTHEAST TENNESSEE

CITY           SKY/WX    TMP DP  RH WIND       PRES   REMARKS
CHATTANOOGA    MOSUNNY   67  51  56 VRB3      30.07F
$$

SKY/WX REPORTED AS FAIR MEANS FEW OR NO CLOUDS BELOW
12 THOUSAND FEET.




USA.gov is the U.S. government's official web portal to all federal, state and local government web resources and services.